Content
SEND FEEDBACK

Daily
Averages
Monthly
Summary
United Kingdom

HORSHAM, ENGLAND


Home > Europe > United Kingdom > England
Elevation: 170 feet     Latitude: 51 07N     Longitude: 000 31W

WEATHER
 
SELECT A DAY
Number of Records: 172,179;   Date Range: 2/20/97 - 8/28/14
 
SHARE

PRINT THIS DATA

[ ← Previous Day ]
WEATHER ALMANAC - OCTOBER 29, 2013
[ Next Day → ]
[ °C ]   °F
Weather ElementAverageHighLow
Temperature48.8 °F54 °F (12:00 pm)41 °F (5:20 pm)
Dewpoint41.8 °F44.6 °F (6:50 am)37.4 °F (4:20 pm)
Humidity76.9 %100 % (6:50 am)47 % (3:00 pm)
Barometer29.91 in30.04 in (8:20 pm)29.75 in (6:00 am)
Wind Speed10.1 mph16.1 mph (9:20 am)
Weather ElementAverage
Visibility8.1 mi
Wind DirectionWSW (260 °)

Weather ElementTotal
Precipitation---
Heating Degree Days17.5 (Base 65)
Averaged from 34 records on October 29, 2013
WEATHER CONDITIONS BREAKOUT
WIND DIRECTION BREAKOUT
WEATHER BY HOUR - OCTOBER 29, 2013
[ °C ]   °F
Local TimeTemperatureDewpointHumidityBarometerVisibilityWind DirectionWind SpeedGust SpeedPrecipitationEventsConditions
6:00 AM45.0 °F42.0 °F83 %29.75 in15.0 miWSW (250°)8.1 mph
6:50 AM44.6 °F44.6 °F100 %29.77 in6.2 miWSW (250°)8.1 mphPartly Cloudy
7:20 AM44.6 °F42.8 °F93 %29.77 inWSW (240°)8.1 mphClear
7:50 AM46.4 °F44.6 °F93 %29.80 inWSW (250°)11.5 mphClear
8:20 AM46.4 °F42.8 °F87 %29.80 inWSW (250°)13.8 mphClear
8:50 AM48.2 °F42.8 °F82 %29.83 inWSW (250°)13.8 mphClear
9:20 AM50.0 °F42.8 °F76 %29.83 inWest (260°)16.1 mphClear
9:50 AM50.0 °F42.8 °F76 %29.83 in6.2 miWest (270°)15.0 mphPartly Cloudy
10:20 AM50.0 °F42.8 °F76 %29.86 in6.2 miWest (270°)10.4 mphPartly Cloudy
10:50 AM51.8 °F44.6 °F76 %29.86 in6.2 miWest (270°)13.8 mphScattered Clouds
11:20 AM51.8 °F44.6 °F76 %29.89 in6.2 miWest (260°)10.4 mphScattered Clouds
11:50 AM53.6 °F44.6 °F72 %29.89 in6.2 miWest (260°)11.5 mphScattered Clouds
12:00 PM54.0 °F44.0 °F59 %29.88 in17.0 miWest (280°)12.7 mphPartly Cloudy
12:20 PM53.6 °F41.0 °F62 %29.89 in6.2 miWNW (300°)10.4 mphScattered Clouds
12:50 PM53.6 °F41.0 °F62 %29.89 in6.2 miWNW (290°)9.2 mphMostly Cloudy
1:20 PM53.6 °F41.0 °F62 %29.89 in6.2 miWest (260°)12.7 mphScattered Clouds
1:50 PM53.6 °F41.0 °F62 %29.92 in6.2 miWest (260°)10.4 mphScattered Clouds
2:20 PM51.8 °F39.2 °F62 %29.92 in6.2 miWest (270°)13.8 mphScattered Clouds
2:50 PM53.6 °F39.2 °F58 %29.92 in6.2 miWest (280°)11.5 mphPartly Cloudy
3:00 PM53.0 °F38.0 °F47 %29.93 in22.0 miWNW (290°)12.7 mphScattered Clouds
3:20 PM51.8 °F39.2 °F62 %29.95 in6.2 miWest (280°)9.2 mphPartly Cloudy
3:50 PM51.8 °F39.2 °F62 %29.95 in6.2 miWest (280°)6.9 mphPartly Cloudy
4:20 PM50.0 °F37.4 °F62 %29.95 in6.2 miWest (270°)6.9 mphPartly Cloudy
4:50 PM48.2 °F39.2 °F71 %29.95 in6.2 miWest (260°)6.9 mphPartly Cloudy
5:20 PM41.0 °F39.2 °F93 %29.98 in6.2 miSouth (190°)4.6 mphPartly Cloudy
5:50 PM44.6 °F41.0 °F87 %29.98 in6.2 miWSW (240°)5.8 mphPartly Cloudy
6:20 PM46.4 °F42.8 °F87 %30.01 in6.2 miWSW (250°)8.1 mphPartly Cloudy
6:50 PM46.4 °F42.8 °F87 %30.01 in6.2 miWSW (250°)8.1 mphPartly Cloudy
7:29 PM46.4 °F42.8 °F87 %30.01 in6.2 miWSW (250°)8.1 mphPartly Cloudy
7:50 PM44.6 °F42.8 °F93 %30.01 in6.2 miWSW (240°)8.1 mphPartly Cloudy
8:20 PM44.6 °F42.8 °F93 %30.04 inWSW (250°)9.2 mphClear
8:50 PM44.6 °F42.8 °F93 %30.04 inWest (260°)10.4 mphClear
9:00 PM45.0 °F41.0 °F80 %30.04 in19.0 miWest (260°)9.2 mph
9:20 PM44.6 °F42.8 °F93 %30.04 inWSW (250°)6.9 mphClear
Hourly data recorded from EGLF, located miles away from Horsham, England







STORIES FROM OUR PARTNERS